Volver al catálogo

TIROS 4

ActivoMeteoLEO
NORAD 226·PAYLOAD·🇺🇸 United States

Lanzado Feb 8, 1962 desde Cape Canaveral Space Force Station

Loading…

Próximos Pases (próximas 24 horas)

TLE

ActualizadoSource: Space-Track

Época: Sep 14, 2026, 05:40 UTC

1 00226U 62002A   26257.23656729  .00000010  00000-0  48375-4 0  9994
2 00226  48.2974 327.6436 0076619 259.3615  99.8648 14.47216054381344

Sigue TIROS 4 en tiempo real con AllMySat

Download on the App Store